Location: Unspecified
(0.0000°N, 0.0000°E)
Time: 18:48:16
(UTC+00:00)

Amateur Radio Satellites - All Passes

Search period start: 22 August 2017 18:18
Search period end: 23 August 2017 18:18
Location: Unspecified, 0.0000°N, 0.0000°E

Satellite Date Start Highest point End Downlink Frequencies (MHz)
Time Altitude Azimuth
HO-68 22 Aug 18:20:59 18:27:35 40° 76° (ENE) 18:34:08 435.675
XW-2C 22 Aug 18:25:50 18:28:40 21° 259° (W) 18:31:29 145.795 - 145.815
CUBEBUG 2 22 Aug 18:31:00 18:33:54 17° 79° (E) 18:36:43 437.445
XW-2A 22 Aug 18:31:22 18:32:46 12° 79° (E) 18:34:09 145.665 - 145.685
CUTE-I 22 Aug 18:33:55 18:38:49 37° 257° (WSW) 18:43:43 437.470
XW-2F 22 Aug 18:37:09 18:39:21 15° 259° (WSW) 18:41:33 145.980 - 146.000
JUGNU 22 Aug 18:44:29 18:49:43 34° 199° (SSW) 18:54:59 437.505
SEEDS 22 Aug 18:45:40 18:49:27 33° 79° (ENE) 18:53:13 437.485
STRAND 1 22 Aug 18:47:41 18:52:36 50° 103° (ESE) 18:57:33 437.568
SRMSAT 22 Aug 18:57:07 19:02:56 57° 21° (NNE) 19:08:47 437.500
AO-73 22 Aug 19:16:50 19:18:53 13° 79° (E) 19:20:55 145.935
PCSat 22 Aug 19:21:04 19:24:09 15° 110° (ESE) 19:27:13 145.827
AAUSAT CUBESAT 2 22 Aug 19:25:37 19:29:35 46° 79° (ENE) 19:33:33 437.432
RS-15 22 Aug 19:36:42 19:45:18 24° 67° (ENE) 19:53:33 29.354- 29.394
CUTE 1.7 + AOD 2 22 Aug 19:37:22 19:40:34 21° 258° (WSW) 19:43:47 437.475
UWE-3 22 Aug 19:54:56 19:59:14 57° 259° (WSW) 20:03:22 435.000/436.395/437.385
Oscar 11 22 Aug 19:57:44 20:01:43 37° 78° (ENE) 20:05:40 .
O/OREOS (USA 219) 22 Aug 19:59:05 20:03:28 46° 255° (WSW) 20:07:52 437.305
SO-50 22 Aug 20:02:44 20:06:46 30° 112° (ESE) 20:10:45 436.795
XW-2A 22 Aug 20:03:32 20:05:13 13° 258° (WSW) 20:06:54 145.665 - 145.685
CUBEBUG 2 22 Aug 20:06:57 20:10:14 20° 257° (WSW) 20:13:28 437.445
HO-68 22 Aug 20:09:42 20:14:57 22° 255° (WSW) 20:20:13 435.675
ZACube-1 22 Aug 20:30:52 20:34:49 37° 258° (WSW) 20:38:41 437.345
JUGNU 22 Aug 20:35:54 20:39:14 15° 193° (SSW) 20:42:34 437.505
SRMSAT 22 Aug 20:46:23 20:52:09 52° 201° (SSW) 20:57:59 437.500
AO-73 22 Aug 20:51:33 20:54:52 22° 258° (WSW) 20:58:07 145.935
TIGRISAT 22 Aug 20:52:49 20:56:01 19° 103° (ESE) 20:59:16 435.000
PCSat 22 Aug 21:02:25 21:07:16 35° 289° (WNW) 21:12:09 145.827
Max Valier Satellite 22 Aug 21:13:10 21:16:44 51° 79° (E) 21:20:16 145.860
PRISM 22 Aug 21:25:32 21:29:14 35° 102° (ESE) 21:32:57 437.425
FO-29 22 Aug 21:29:32 21:34:27 47° 282° (WNW) 21:39:35 435.910
NO-84 22 Aug 21:41:33 21:45:07 83° 125° (SE) 21:48:21 435.350 FM
SO-50 22 Aug 21:45:01 21:46:57 13° 292° (WNW) 21:48:54 436.795
RS-15 22 Aug 21:46:22 21:57:20 56° 250° (WSW) 22:07:55 29.354- 29.394
DELFI C3 22 Aug 21:49:53 21:53:17 27° 259° (WSW) 21:56:41 145.870
UNISAT 6 22 Aug 21:53:36 21:57:54 50° 281° (WNW) 22:02:20 437.425
LO-87 22 Aug 21:56:19 21:56:58 10° 79° (E) 21:57:37 145.935 - 145.965
EO-88 22 Aug 22:03:24 22:06:35 29° 259° (W) 22:09:44 145.990 - 145.960
TIGRISAT 22 Aug 22:29:17 22:32:26 19° 281° (W) 22:35:37 435.000
AIST 2D 22 Aug 22:32:18 22:35:29 31° 101° (E) 22:38:41 435.315
SRMSAT 22 Aug 22:37:10 22:41:38 21° 196° (SSW) 22:46:07 437.500
ESTCUBE 1 22 Aug 22:51:10 22:55:29 47° 78° (ENE) 22:59:48 437.505/2401.250
DUCHIFAT 1 22 Aug 22:51:54 22:54:18 15° 102° (ESE) 22:56:43 145.980
LO-87 22 Aug 23:27:27 23:30:08 20° 258° (WSW) 23:32:48 145.935 - 145.965
NANOSAT C BR1 22 Aug 23:36:06 23:40:19 85° 102° (ESE) 23:44:33 145.865
POLYITAN 1 22 Aug 23:42:41 23:46:52 66° 282° (WNW) 23:51:06 437.675
M-CUBED/EXP-1 PRIME 22 Aug 23:44:20 23:47:28 25° 287° (WNW) 23:50:28 437.505
EO-79 22 Aug 23:58:12 00:02:06 38° 282° (WNW) 00:06:04 145.935-145.965
50 SAT 22 Aug 23:58:13 23:58:43 10° 78° (ENE) 23:59:13 437.505
QB50P2 22 Aug 23:58:19 00:02:08 33° 282° (WNW) 00:05:59 145.880/145.840
Oscar 19 23 Aug 00:07:57 00:10:26 14° 103° (ESE) 00:12:54 437.125/150
JUGNU 23 Aug 00:17:27 00:19:28 12° 172° (S) 00:21:29 437.505
BUGSAT 1 23 Aug 00:17:52 00:21:49 51° 102° (ESE) 00:25:50 437.445
SPROUT 23 Aug 00:18:31 00:22:43 55° 258° (WSW) 00:26:53 437.525
DX 1 23 Aug 00:21:59 00:25:18 21° 78° (ENE) 00:28:36 434.975-435.025
VELOX 1 23 Aug 00:25:36 00:30:01 62° 258° (WSW) 00:34:24 145.980
DUCHIFAT 1 23 Aug 00:26:32 00:29:41 21° 282° (WNW) 00:32:51 145.980
SRMSAT 23 Aug 00:29:43 00:31:40 12° 187° (S) 00:33:38 437.500
50 SAT 23 Aug 01:28:50 01:31:07 17° 258° (WSW) 01:33:23 437.505
UKube-1 23 Aug 01:31:05 01:35:23 65° 258° (WSW) 01:39:40 .
Gurwin Techsat 1B 23 Aug 01:34:16 01:39:34 86° 282° (WNW) 01:44:54 435.225
Oscar 19 23 Aug 01:44:44 01:49:27 36° 283° (WNW) 01:54:11 437.125/150
ITUPSAT 1 23 Aug 01:49:03 01:50:02 11° 77° (ENE) 01:51:00 437.325
DX 1 23 Aug 01:58:29 02:01:12 16° 257° (WSW) 02:03:55 434.975-435.025
JUGNU 23 Aug 02:04:41 02:09:16 23° 163° (SSE) 02:13:52 437.505
BEESAT 3 23 Aug 02:07:08 02:10:42 36° 112° (ESE) 02:14:21 437.485
MOZHAYETS 4 23 Aug 02:13:59 02:17:17 20° 78° (ENE) 02:20:34
SRMSAT 23 Aug 02:21:13 02:22:05 10° 176° (S) 02:22:56 437.500
BEESAT 2 23 Aug 02:27:08 02:29:20 15° 112° (ESE) 02:31:34 435.950
BEESAT 23 Aug 02:47:03 02:51:49 74° 77° (ENE) 02:56:32 436.000
YUBILEINY 23 Aug 02:52:25 03:01:07 84° 87° (E) 03:09:52 435.215
ITAMSAT 1 23 Aug 03:08:20 03:13:28 75° 102° (ESE) 03:18:40 435.822/435.867
AO-7 23 Aug 03:10:37 03:18:55 84° 106° (ESE) 03:27:13 .
AO-85 23 Aug 03:12:24 03:16:32 45° 291° (WNW) 03:20:23 145.980
ITUPSAT 1 23 Aug 03:23:11 03:27:34 37° 257° (WSW) 03:31:57 437.325
KKS-1 23 Aug 03:46:55 03:49:38 16° 78° (ENE) 03:52:20 437.445
MOZHAYETS 4 23 Aug 03:51:01 03:54:10 19° 258° (WSW) 03:57:18
JUGNU 23 Aug 03:52:41 03:58:34 56° 159° (SSE) 04:04:26 437.505
BEESAT 2 23 Aug 04:04:05 04:06:49 18° 292° (WNW) 04:09:34 435.950
SRMSAT 23 Aug 04:08:31 04:12:16 17° 167° (SSE) 04:16:01 437.500
CUBESAT XI-V 23 Aug 04:15:09 04:19:44 68° 258° (WSW) 04:24:20 437.345
STARS 23 Aug 04:19:41 04:21:59 14° 78° (ENE) 04:24:16 437.465
XW-2F 23 Aug 04:57:04 04:58:34 12° 102° (ESE) 05:00:04 145.980 - 146.000
DOVE 4 23 Aug 05:06:14 05:10:25 88° 283° (WNW) 05:14:33 437.250
AO-7 23 Aug 05:10:11 05:11:11 10° 288° (WNW) 05:12:12 .
Tancredo 1 23 Aug 05:16:03 05:18:52 49° 305° (NW) 05:21:41 437.200
KAITUO 1B 23 Aug 05:17:10 05:19:52 19° 101° (ESE) 05:22:35 145.475/437.950
KKS-1 23 Aug 05:22:24 05:25:55 23° 258° (WSW) 05:29:25 437.445
ISS 23 Aug 05:27:18 05:29:52 21° 126° (SE) 05:32:25 437.550
nSIGHT-1 23 Aug 05:32:27 05:35:17 27° 126° (SE) 05:38:06 .
CUTE-I 23 Aug 05:33:17 05:38:15 41° 103° (ESE) 05:43:13 437.470
JUGNU 23 Aug 05:41:48 05:47:38 53° 339° (NNW) 05:53:28 437.505
NUDT-PHONESAT 23 Aug 05:45:26 05:49:06 53° 101° (E) 05:52:47 437.300
LilacSat-2 23 Aug 05:46:43 05:50:36 84° 278° (W) 05:54:28 437.200
XW-2D 23 Aug 05:48:04 05:51:54 83° 280° (W) 05:55:45 145.860 - 145.880
STARS 23 Aug 05:54:26 05:58:03 25° 258° (WSW) 06:01:39 437.465
SRMSAT 23 Aug 05:56:25 06:01:56 37° 160° (SSE) 06:07:25 437.500
XW-2B 23 Aug 05:59:15 06:03:00 56° 281° (W) 06:06:47 145.730 - 145.750
CUTE 1.7 + AOD 2 23 Aug 06:08:18 06:11:12 18° 102° (ESE) 06:14:07 437.475
HO-68 23 Aug 06:12:46 06:19:03 34° 105° (ESE) 06:25:20 435.675
XW-2C 23 Aug 06:18:56 06:22:11 27° 281° (WNW) 06:25:28 145.795 - 145.815
XW-2F 23 Aug 06:29:34 06:32:25 20° 281° (W) 06:35:16 145.980 - 146.000
O/OREOS (USA 219) 23 Aug 06:33:27 06:35:25 13° 105° (ESE) 06:37:22 437.305
CUBEBUG 2 23 Aug 06:42:02 06:45:39 25° 102° (ESE) 06:49:24 437.445
SEEDS 23 Aug 06:50:34 06:54:32 40° 101° (ESE) 06:58:29 437.485
KAITUO 1B 23 Aug 06:51:56 06:53:36 13° 281° (WNW) 06:55:15 145.475/437.950
ISS 23 Aug 07:04:55 07:06:08 12° 306° (NW) 07:07:22 437.550
ZACube-1 23 Aug 07:06:22 07:08:13 12° 103° (ESE) 07:10:04 437.345
CUTE-I 23 Aug 07:16:00 07:18:00 12° 283° (WNW) 07:20:01 437.470
RS-15 23 Aug 07:18:26 07:26:20 21° 112° (ESE) 07:34:22 29.354- 29.394
STRAND 1 23 Aug 07:20:12 07:25:17 64° 257° (WSW) 07:30:21 437.568
AO-73 23 Aug 07:24:41 07:27:56 20° 102° (ESE) 07:31:15 145.935
AAUSAT CUBESAT 2 23 Aug 07:28:53 07:32:54 52° 101° (ESE) 07:36:56 437.432
JUGNU 23 Aug 07:32:27 07:36:57 22° 344° (NNW) 07:41:26 437.505
CUTE 1.7 + AOD 2 23 Aug 07:43:53 07:46:46 18° 282° (WNW) 07:49:39 437.475
XW-2A 23 Aug 07:44:37 07:47:33 27° 281° (W) 07:50:32 145.665 - 145.685
SRMSAT 23 Aug 07:45:12 07:51:12 81° 338° (NNW) 07:57:10 437.500
PCSat 23 Aug 07:55:08 08:00:17 47° 71° (ENE) 08:05:27 145.827
HO-68 23 Aug 08:00:41 08:06:26 27° 285° (WNW) 08:12:14 435.675
UWE-3 23 Aug 08:05:36 08:09:46 41° 281° (WNW) 08:14:04 435.000/436.395/437.385
Oscar 11 23 Aug 08:06:04 08:10:17 50° 101° (ESE) 08:14:30 .
O/OREOS (USA 219) 23 Aug 08:10:50 08:14:33 26° 284° (WNW) 08:18:15 437.305
SO-50 23 Aug 08:14:35 08:19:09 57° 68° (ENE) 08:23:46 436.795
CUBEBUG 2 23 Aug 08:19:42 08:22:01 14° 281° (W) 08:24:23 437.445
UNISAT 6 23 Aug 08:34:10 08:34:58 10° 79° (ENE) 08:35:46 437.425
ZACube-1 23 Aug 08:40:19 08:44:10 29° 281° (W) 08:48:06 437.345
FO-29 23 Aug 08:59:48 09:07:43 85° 77° (ENE) 09:15:19 435.910
AO-73 23 Aug 09:00:50 09:03:53 18° 281° (W) 09:06:59 145.935
Max Valier Satellite 23 Aug 09:04:05 09:07:31 35° 101° (ESE) 09:10:58 145.860
TIGRISAT 23 Aug 09:05:31 09:09:21 28° 79° (E) 09:13:05 435.000
NO-84 23 Aug 09:23:46 09:27:19 65° 59° (ENE) 09:31:14 435.350 FM
JUGNU 23 Aug 09:24:54 09:26:47 11° 352° (N) 09:28:41 437.505
RS-15 23 Aug 09:26:42 09:38:21 69° 291° (WNW) 09:50:30 29.354- 29.394
PRISM 23 Aug 09:27:50 09:31:42 38° 78° (ENE) 09:35:33 437.425
SRMSAT 23 Aug 09:35:20 09:40:30 30° 341° (NNW) 09:45:38 437.500
PCSat 23 Aug 09:42:14 09:43:26 11° 250° (WSW) 09:44:38 145.827
DELFI C3 23 Aug 09:47:55 09:51:19 29° 282° (WNW) 09:54:44 145.870
EO-88 23 Aug 09:52:38 09:56:08 44° 281° (W) 09:59:40 145.990 - 145.960
UNISAT 6 23 Aug 10:07:27 10:11:27 32° 258° (WSW) 10:15:20 437.425
M-CUBED/EXP-1 PRIME 23 Aug 10:10:41 10:11:29 10° 72° (ENE) 10:12:17 437.505
AIST 2D 23 Aug 10:18:56 10:21:23 18° 79° (E) 10:23:49 435.315
QB50P2 23 Aug 10:31:39 10:32:54 11° 78° (ENE) 10:34:09 145.880/145.840
TIGRISAT 23 Aug 10:44:01 10:45:43 12° 257° (WSW) 10:47:25 435.000
FO-29 23 Aug 10:50:55 10:52:08 10° 255° (WSW) 10:53:21 435.910
DUCHIFAT 1 23 Aug 10:56:49 10:59:38 18° 78° (ENE) 11:02:27 145.980
ESTCUBE 1 23 Aug 11:04:57 11:09:26 77° 101° (E) 11:13:57 437.505/2401.250
LO-87 23 Aug 11:14:40 11:17:47 30° 281° (W) 11:20:57 145.935 - 145.965
SRMSAT 23 Aug 11:27:13 11:30:14 14° 348° (NNW) 11:33:16 437.500
NANOSAT C BR1 23 Aug 11:41:47 11:46:01 79° 258° (WSW) 11:50:12 145.865
M-CUBED/EXP-1 PRIME 23 Aug 11:41:48 11:45:31 33° 255° (WSW) 11:49:28 437.505
POLYITAN 1 23 Aug 11:49:01 11:53:09 52° 258° (WSW) 11:57:14 437.675
EO-79 23 Aug 12:04:26 12:08:11 31° 258° (WSW) 12:11:55 145.935-145.965
QB50P2 23 Aug 12:04:49 12:08:25 27° 258° (WSW) 12:12:00 145.880/145.840
BUGSAT 1 23 Aug 12:20:52 12:24:59 58° 78° (ENE) 12:29:01 437.445
SPROUT 23 Aug 12:25:33 12:29:34 43° 282° (WNW) 12:33:38 437.525
DX 1 23 Aug 12:31:05 12:34:47 28° 102° (ESE) 12:38:28 434.975-435.025
DUCHIFAT 1 23 Aug 12:32:15 12:35:02 17° 258° (WSW) 12:37:49 145.980
Gurwin Techsat 1B 23 Aug 12:34:59 12:38:27 18° 77° (ENE) 12:41:53 435.225
VELOX 1 23 Aug 12:37:15 12:41:23 42° 282° (WNW) 12:45:31 145.980
Oscar 19 23 Aug 12:39:27 12:44:04 34° 78° (ENE) 12:48:41 437.125/150
JUGNU 23 Aug 13:03:30 13:07:02 16° 13° (NNE) 13:10:33 437.505
50 SAT 23 Aug 13:10:11 13:13:12 33° 281° (WNW) 13:16:15 437.505
YUBILEINY 23 Aug 13:32:35 13:38:22 19° 93° (E) 13:44:06 435.215
UKube-1 23 Aug 13:39:30 13:43:38 48° 282° (WNW) 13:47:47 .
AO-85 23 Aug 13:45:03 13:48:03 16° 69° (ENE) 13:51:09 145.980
AO-7 23 Aug 13:48:13 13:53:00 16° 73° (ENE) 13:57:46 .
BEESAT 3 23 Aug 13:58:51 14:02:24 35° 68° (ENE) 14:05:54 437.485
ITAMSAT 1 23 Aug 14:07:23 14:09:22 12° 77° (ENE) 14:11:21 435.822/435.867
ITUPSAT 1 23 Aug 14:08:31 14:12:07 21° 103° (ESE) 14:15:45 437.325
DX 1 23 Aug 14:09:12 14:10:41 12° 282° (WNW) 14:12:10 434.975-435.025
Gurwin Techsat 1B 23 Aug 14:13:32 14:18:06 30° 257° (WSW) 14:22:40 435.225
BEESAT 2 23 Aug 14:19:55 14:22:19 15° 68° (ENE) 14:24:40 435.950
Oscar 19 23 Aug 14:20:33 14:23:06 14° 257° (WSW) 14:25:39 437.125/150
MOZHAYETS 4 23 Aug 14:29:39 14:33:49 34° 102° (ESE) 14:38:00
JUGNU 23 Aug 14:51:09 14:56:31 36° 19° (NNE) 15:01:50 437.505
SRMSAT 23 Aug 15:08:26 15:10:49 12° 9° (N) 15:13:13 437.500
BEESAT 23 Aug 15:08:51 15:13:30 57° 282° (WNW) 15:18:12 436.000
AO-85 23 Aug 15:23:55 15:28:12 30° 247° (WSW) 15:32:43 145.980
YUBILEINY 23 Aug 15:26:17 15:34:46 52° 273° (W) 15:43:13 435.215
AO-7 23 Aug 15:37:06 15:45:20 63° 254° (WSW) 15:53:34 .
ITAMSAT 1 23 Aug 15:43:40 15:48:32 40° 257° (WSW) 15:53:24 435.822/435.867
ITUPSAT 1 23 Aug 15:46:14 15:49:40 20° 282° (WNW) 15:53:07 437.325
DOVE 4 23 Aug 15:52:55 15:53:25 10° 78° (ENE) 15:53:55 437.250
BEESAT 2 23 Aug 15:57:07 15:59:47 17° 248° (WSW) 16:02:25 435.950
KKS-1 23 Aug 15:58:27 16:01:55 23° 103° (ESE) 16:05:23 437.445
MOZHAYETS 4 23 Aug 16:09:18 16:10:41 11° 282° (WNW) 16:12:05
STARS 23 Aug 16:29:28 16:32:35 19° 103° (ESE) 16:35:42 437.465
CUBESAT XI-V 23 Aug 16:33:38 16:37:57 38° 282° (WNW) 16:42:16 437.345
JUGNU 23 Aug 16:39:42 16:45:35 83° 201° (SSW) 16:51:27 437.505
Tancredo 1 23 Aug 16:40:23 16:43:11 53° 55° (NE) 16:45:59 437.200
SRMSAT 23 Aug 16:55:54 17:00:41 25° 17° (NNE) 17:05:29 437.500
ISS 23 Aug 17:02:10 17:03:43 13° 54° (NE) 17:05:17 437.550
nSIGHT-1 23 Aug 17:06:19 17:08:23 16° 54° (NE) 17:10:27 .
KAITUO 1B 23 Aug 17:10:07 17:12:00 14° 79° (E) 17:13:54 145.475/437.950
DOVE 4 23 Aug 17:25:41 17:30:45 50° 258° (WSW) 17:35:51 437.250
KKS-1 23 Aug 17:35:38 17:38:11 15° 282° (WNW) 17:40:45 437.445
NUDT-PHONESAT 23 Aug 17:37:01 17:40:24 36° 79° (ENE) 17:43:46 437.300
LilacSat-2 23 Aug 17:41:07 17:44:53 78° 80° (E) 17:48:38 437.200
XW-2D 23 Aug 17:41:44 17:45:28 76° 79° (E) 17:49:11 145.860 - 145.880
XW-2B 23 Aug 17:52:52 17:56:36 73° 259° (W) 18:00:19 145.730 - 145.750
HO-68 23 Aug 18:04:49 18:10:43 28° 75° (ENE) 18:16:35 435.675
STARS 23 Aug 18:05:45 18:08:39 18° 282° (WNW) 18:11:33 437.465
